www.pogodaiklimat.ru

Погода и климат >> Архив погоды >> Франция >> Гавр аэропорт


ПОГОДА в Гавр аэропорту

  • Прогноз погоды в Гавр аэропорту
  • Монитор погоды в Гавр аэропорту

АРХИВ ПОГОДЫ в Гавр аэропорту

Время (UTC), дата Ветер
(напр.,м/с)
 
Видим.   Явления Облачность Т
(С)
Тd
(С)
f
(%)
Тe
(С)
Тes
(С)
Комфортность P
(гПа)
Po
(гПа)
Тmin
(С)
Tmax
(С)
R
(мм)
R24
(мм)
S
(см)
13 18.08 З 3-5
{6}
45 км н/о +19.3 +12.1 63 +21 +21 комфорт 1009.9 999.3
14 18.08 З 5-6
{6}
40 км н/о +19.6 +12.1 62 +21 +21 комфорт 1010.2 999.6
15 18.08 З 4-7
{7}
19 км н/о +19.3 +10.8 58 +20 +20 1010.7 1000.1 0
16 18.08 З 4-6
{7}
29 км н/о +19.2 +10.5 57 +20 +20 1011.1 1000.5
17 18.08 З 4-6
{7}
19 км н/о +18.6 +10.9 61 +19 +19 1011.5 1000.8
18 18.08 З 4-6
{7}
35 км н/о +18.0 +9.6 58 +18 +18 1011.6 1000.9 +13.7 +19.9 0
19 18.08 З 5-7
{7}
55 км н/о +17.2 +10.1 63 +17 +17 1012.0 1001.3
20 18.08 З 4-6
{6}
50 км н/о +16.7 +10.8 68 +16 +16 1012.7 1002.0
21 18.08 З 4-6
{6}
50 км н/о +16.5 +12.1 75 +16 +16 1013.2 1002.5 0
22 18.08 З 4-6
{6}
40 км н/о +16.2 +12.2 77 +15 +15 1013.7 1002.9
23 18.08 З 4-6
{6}
19 км 9/9 540 м
[]
+16.0 +12.4 79 +15 +15 1013.9 1003.1
00 19.08 З 4-5
{6}
19 км 9/9 300 м
[]
+16.0 +13.1 83 +15 +15 1014.5 1003.7 0
01 19.08 З 4 19 км 9/9 500 м
[]
+15.8 +12.9 83 +15 +15 1014.9 1004.1
02 19.08 З 3-5
{5}
19 км н/о +15.3 +12.4 83 +15 +15 1015.0 1004.2
03 19.08 З 4
{11}
19 км 10/10 300 м
[]
+15.5 +12.6 83 +14 +14 1015.0 1004.2 0
04 19.08 ЮЗ 3-4
{6}
19 км 8/8 480 м
[]
+15.2 +12.5 84 +14 +14 1015.4 1004.6
05 19.08 ЮЗ 3-4
{5}
19 км 10/10 400 м
[]
+14.9 +12.9 88 +14 +14 1015.8 1005.0
06 19.08 ЮЗ 3
{9}
18 км 8/8 300 м
[]
+15.0 +13.2 89 +14 +14 1016.3 1005.5 +14.7 +18.1 0
07 19.08 ЮЗ 3-4
{5}
17 км н/о +15.2 +13.4 89 +15 +15 1016.6 1005.8
08 19.08 ЮЗ 3-5
{5}
19 км н/о +16.4 +13.1 81 +16 +16 1017.0 1006.2
09 19.08 ЮЗ 4
{10}
19 км 10/10 300 м
[]
+17.5 +13.0 75 +17 +19 1017.5 1006.8 0
10 19.08 З 4 45 км 10/9 570 м
[]
+17.9 +12.3 70 +18 +18 1018.0 1007.3
11 19.08 З 4 4900 м дождь 9/6 600 м
[]
+16.2 +12.7 80 +16 +18 1018.7 1007.9 0.6
12 19.08 З 3
{11}
19 км 10/10 600 м
[]
+18.0 +13.5 75 +18 +19 1018.8 1008.1 0.6 0
13 19.08 З 4 19 км 10/1 900 м
[]
+18.5 +12.0 66 +19 +23 1019.1 1008.4
14 19.08 З 4-6
{6}
19 км н/о +19.3 +10.3 56 +20 +20 1019.2 1008.5
15 19.08 З 4-5
{6}
19 км н/о +19.4 +11.9 62 +21 +21 комфорт 1019.2 1008.5 0
16 19.08 З 4-6
{6}
19 км н/о +19.4 +10.9 58 +21 +21 комфорт 1019.5 1008.8
17 19.08 З 4-6
{6}
30 км н/о +18.8 +11.1 61 +20 +20 1019.7 1009.0
18 19.08 З 3
{10}
45 км н/о +18.3 +10.9 62 +19 +19 1020.0 1009.2 +14.9 +19.8 0
19 19.08 З 3-5
{5}
55 км н/о +17.2 +10.3 64 +17 +17 1020.2 1009.4
20 19.08 З 3-5
{5}
60 км н/о +16.9 +11.0 68 +17 +17 1020.8 1010.0
21 19.08 З 3-4
{5}
60 км н/о +16.5 +11.0 70 +16 +16 1021.3 1010.5 0
22 19.08 З 3-4
{5}
55 км н/о +16.2 +11.8 75 +16 +16 1021.6 1010.8
23 19.08 З 3-4
{4}
55 км н/о +16.0 +11.4 74 +16 +16 1021.8 1010.9
00 20.08 З 3-4
{5}
55 км 8/8 600 м
[]
+15.8 +11.2 74 +15 +15 1022.0 1011.1 0
01 20.08 З 3-4
{4}
50 км н/о +15.6 +11.8 78 +15 +15 1022.0 1011.1
02 20.08 З 3-4
{5}
50 км н/о +15.6 +11.2 75 +15 +15 1021.8 1010.9
03 20.08 З 3-4
{4}
55 км н/о +15.5 +11.5 77 +15 +15 1021.8 1010.9 0
04 20.08 З 2-3
{4}
50 км н/о +15.2 +11.0 76 +15 +15 1022.0 1011.1
05 20.08 З 2-3
{4}
50 км н/о +15.1 +10.9 76 +15 +15 1022.6 1011.7
06 20.08 З 2
{7}
40 км н/о +15.6 +10.8 73 +16 +16 1023.1 1012.2 +15.0 +18.2 0
07 20.08 З 3-3
{4}
60 км н/о +16.0 +11.6 75 +16 +16 1023.7 1012.8
08 20.08 З 3 19 км 9/9 500 м
[]
+16.7 +12.6 77 +17 +17 1024.2 1013.4
09 20.08 З 3
{8}
19 км 9/9 600 м
[]
+17.7 +11.7 68 +18 +18 1024.6 1013.8 0
10 20.08 З 3 19 км 8/8 630 м
[]
+17.8 +12.3 70 +18 +20 1024.9 1014.1
11 20.08 З 3-4
{5}
19 км н/о +17.6 +11.2 66 +18 +18 1025.3 1014.5
12 20.08 З 2
{9}
40 км н/о +18.4 +11.7 65 +19 +19 1025.5 1014.7 0
13 20.08 СЗ 3-4
{4}
19 км н/о +18.6 +11.2 62 +19 +19 1025.8 1015.0
14 20.08 СЗ 2-4
{4}
19 км н/о +18.6 +12.1 66 +20 +20 1025.9 1015.1
15 20.08 СЗ 4-3
{7}
19 км н/о +18.2 +11.0 63 +18 +18 1026.2 1015.4 0
16 20.08 СЗ 4-3
{7}
40 км н/о +18.1 +10.5 61 +18 +18 1026.6 1015.8
17 20.08 СЗ 4-3
{7}
60 км н/о +17.8 +9.7 59 +18 +18 1026.6 1015.8
18 20.08 СЗ 2
{5}
55 км н/о +17.0 +10.4 65 +18 +18 1027.0 1016.1 +15.7 +18.7 0
19 20.08 СЗ 2-3
{3}
60 км н/о +15.8 +10.1 69 +16 +16 1027.5 1016.6
20 20.08 СЗ 2-3
{3}
60 км н/о +15.3 +10.5 73 +15 +15 1027.9 1017.0
21 20.08 С 2
{5}
60 км 8/0
[]
+14.7 +10.1 74 +15 +15 1028.3 1017.3 0
22 20.08 С 1-2
{2}
60 км н/о +14.2 +10.2 77 +15 +15 1028.4 1017.4
23 20.08 штиль 0-1
{2}
55 км н/о +13.7 +9.9 78 +13 +13 1028.3 1017.3
00 21.08 штиль 0-1
{1}
40 км н/о +12.2 +9.0 81 +12 +12 1028.5 1017.4 0
01 21.08 штиль 0-1
{1}
40 км н/о +10.5 +8.9 90 +10 +10 1028.3 1017.2
02 21.08 штиль 0
{1}
40 км н/о +10.1 +8.5 90 +9 +9 1028.4 1017.2
03 21.08 Ю 1-1
{1}
19 км н/о +11.3 +10.4 94 +11 +11 1028.2 1017.1 0
04 21.08 ЮВ 1-1
{1}
19 км н/о +10.9 +9.7 92 +11 +11 1028.3 1017.2
05 21.08 Ю 1-1
{1}
14 км н/о +11.4 +10.3 93 +12 +12 1028.6 1017.5
06 21.08 ЮВ 1
{2}
8000 м н/о +11.0 +9.6 91 +12 +12 1028.7 1017.6 +9.6 +17.0 0
07 21.08 ЮВ 1-1
{1}
17 км н/о +14.2 +12.1 87 +15 +15 1028.9 1017.9
08 21.08 Ю 1-2
{2}
19 км н/о +16.1 +11.5 74 +17 +17 1028.9 1018.0
09 21.08 ЮВ 1-2
{2}
19 км н/о +17.1 +11.6 70 +18 +18 1028.8 1017.9 0
10 21.08 В 2-2
{3}
29 км н/о +18.4 +10.7 61 +20 +20 1028.3 1017.5
11 21.08 З 1-2
{3}
50 км н/о +19.7 +12.0 61 +22 +22 комфорт 1027.9 1017.1
12 21.08 С 2-2
{3}
19 км н/о +18.6 +12.6 68 +20 +20 1027.5 1016.7 0
13 21.08 С 2-3
{3}
19 км н/о +19.2 +13.4 69 +21 +21 комфорт 1027.3 1016.5
14 21.08 С 3-4
{4}
19 км н/о +18.6 +13.2 71 +20 +20 1027.0 1016.2
15 21.08 С 3-4
{4}
50 км н/о +18.8 +12.8 68 +20 +20 1026.8 1016.0 0
16 21.08 С 3-4
{4}
60 км н/о +18.8 +13.0 69 +20 +20 1026.5 1015.7
17 21.08 С 2-3
{3}
19 км н/о +19.1 +10.1 56 +20 +20 1026.1 1015.3
18 21.08 С 2
{6}
55 км н/о +17.8 +11.4 66 +18 +18 1026.1 1015.3 +11.1 +19.7 0
19 21.08 СВ 2-2
{3}
40 км н/о +16.1 +11.3 73 +16 +16 1026.3 1015.4
20 21.08 В 1-2
{2}
30 км н/о +15.0 +12.1 83 +15 +15 1026.7 1015.8
21 21.08 СВ 1-1
{2}
18 км н/о +14.2 +12.2 88 +14 +14 1027.0 1016.0 0
22 21.08 В 1-1
{2}
16 км н/о +13.9 +12.1 89 +15 +15 1026.8 1015.8
23 21.08 В 1-1
{1}
16 км н/о +14.4 +12.6 89 +15 +15 1026.8 1015.8
00 22.08 ЮВ 1-1
{1}
10 км н/о +13.3 +11.9 91 +14 +14 1026.5 1015.5 0
01 22.08 ЮВ 1-1
{1}
8000 м н/о +12.8 +11.9 94 +14 +14 1026.3 1015.3
02 22.08 штиль 0
{1}
100 м туман н/о +11.6 +10.8 95 +11 +11 1026.1 1015.0
03 22.08 штиль 0-1
{1}
2000 м дымка н/о +11.0 +10.4 96 +10 +10 1026.0 1014.9 0
04 22.08 штиль 0
{1}
2100 м дымка н/о +10.7 +10.2 97 +10 +10 1026.0 1014.9 0.2
05 22.08 штиль 0-1
{1}
7000 м н/о +10.0 +9.4 96 +9 +9 1026.1 1015.0
06 22.08 ЮВ 1
{2}
13 км н/о +11.5 +11.0 97 +12 +12 1026.4 1015.3 +9.8 +17.8 0.2
07 22.08 ЮВ 1-1
{1}
16 км н/о +15.4 +13.6 89 +17 +17 1026.5 1015.6
08 22.08 Ю 1-1
{2}
35 км н/о +18.4 +10.2 59 +20 +20 1026.8 1016.0
09 22.08 СЗ 1-2
{2}
18 км н/о +19.6 +12.8 65 +22 +22 комфорт 1027.0 1016.2 0
10 22.08 СЗ 2-2
{3}
40 км н/о +18.7 +12.0 65 +20 +20 1027.1 1016.3
11 22.08 СЗ 2-3
{3}
19 км н/о +19.6 +12.1 62 +22 +22 комфорт 1026.9 1016.1
12 22.08 С 2-3
{3}
19 км н/о +19.9 +12.6 63 +22 +22 комфорт 1026.8 1016.0 0
13 22.08 С 3-4
{5}
19 км н/о +19.8 +13.9 69 +22 +22 комфорт 1026.6 1015.8
14 22.08 С 2-3
{4}
45 км н/о +20.8 +13.0 61 +24 +24 комфорт 1026.3 1015.6
15 22.08 С 3-3
{3}
50 км н/о +21.0 +11.1 53 +24 +24 комфорт 1026.1 1015.4 0
16 22.08 С 3-4
{4}
60 км н/о +20.3 +10.1 52 +22 +22 комфорт 1025.7 1015.0
17 22.08 С 3-3
{4}
60 км н/о +19.7 +10.1 54 +21 +21 комфорт 1025.8 1015.0
18 22.08 СВ 2
{6}
55 км н/о +19.1 +10.1 56 +20 +20 1025.7 1014.9 +11.5 +21.6 0
19 22.08 СВ 2-3
{3}
55 км н/о +16.5 +11.2 71 +17 +17 1026.2 1015.3
20 22.08 СВ 2-2
{2}
55 км н/о +14.8 +11.0 78 +15 +15 1026.7 1015.7
21 22.08 СВ 1-2
{2}
40 км н/о +14.0 +11.3 84 +14 +14 1026.8 1015.8 0
22 22.08 В 1-1
{2}
35 км н/о +14.3 +11.4 83 +15 +15 1026.9 1015.9
23 22.08 В 1-1
{2}
35 км н/о +14.4 +11.4 82 +15 +15 1026.8 1015.8
00 23.08 ЮВ 1-1
{2}
40 км н/о +14.3 +10.7 79 +15 +15 1026.8 1015.8 0
01 23.08 В 1-1
{1}
40 км н/о +12.9 +10.6 86 +14 +14 1026.4 1015.4
02 23.08 ЮВ 1-1
{1}
35 км н/о +13.1 +10.3 83 +14 +14 1026.2 1015.2
03 23.08 В 2-1
{2}
30 км н/о +12.2 +10.3 88 +11 +11 1025.9 1014.9 0
04 23.08 В 2-2
{3}
23 км н/о +12.3 +10.5 89 +11 +11 1025.7 1014.7
05 23.08 В 1-1
{2}
18 км н/о +11.5 +9.7 89 +11 +11 1025.7 1014.6
06 23.08 В 1
{3}
15 км н/о +12.9 +10.8 87 +13 +13 1025.7 1014.7 +11.5 +19.1 0
07 23.08 В 2-2
{2}
18 км н/о +15.0 +11.6 80 +15 +15 1025.5 1014.6
08 23.08 В 2-2
{3}
18 км н/о +17.9 +11.2 65 +19 +19 1025.3 1014.5
09 23.08 ЮВ 2-2
{3}
50 км н/о +20.2 +11.1 56 +23 +23 комфорт 1025.3 1014.6 0
10 23.08 ЮВ 2-3
{3}
19 км н/о +22.3 +9.5 44 +24 +24 комфорт 1024.9 1014.2
11 23.08 ЮВ 1-2
{3}
60 км н/о +23.7 +10.0 42 +25 +25 комфорт 1024.4 1013.8
12 23.08 С 2-3
{3}
60 км н/о +24.0 +13.5 52 +26 +26 жарко 1024.0 1013.4 0
13 23.08 С 3-4
{4}
60 км н/о +23.9 +14.3 55 +26 +26 жарко 1023.3 1012.7
14 23.08 С 3-3
{4}
19 км н/о +23.9 +14.9 57 +27 +27 жарко 1022.8 1012.2
15 23.08 С 3-4
{4}
55 км н/о +25.1 +14.2 51 +28 +28 жарко 1022.4 1011.9 0
16 23.08 СВ 3-4
{4}
60 км н/о +25.4 +11.9 43 +27 +27 жарко 1022.0 1011.5
17 23.08 СВ 3-4
{5}
60 км н/о +24.2 +10.8 43 +25 +25 комфорт 1021.6 1011.0
18 23.08 СВ 2
{7}
55 км н/о +22.0 +9.5 45 +24 +24 комфорт 1021.5 1010.9 +12.9 +25.9 0
19 23.08 В 2-3
{3}
60 км н/о +20.1 +9.0 49 +22 +22 комфорт 1021.5 1010.8
20 23.08 В 2-4
{4}
60 км н/о +19.0 +7.7 48 +20 +20 1021.6 1010.8
21 23.08 В 2-3
{4}
60 км н/о +17.9 +7.9 52 +18 +18 1021.3 1010.5 0
22 23.08 В 2-3
{3}
60 км н/о +17.5 +8.9 57 +18 +18 1021.0 1010.2
23 23.08 В 2-3
{3}
60 км н/о +16.9 +9.8 63 +17 +17 1020.8 1010.0
00 24.08 В 2-2
{2}
60 км н/о +16.3 +10.2 67 +17 +17 1020.7 1009.9 0
01 24.08 В 2-2
{2}
55 км н/о +15.8 +10.3 70 +16 +16 1020.5 1009.6
02 24.08 В 2-2
{2}
50 км н/о +15.5 +10.5 72 +16 +16 1020.2 1009.3
03 24.08 В 2-2
{2}
45 км н/о +15.3 +10.5 73 +15 +15 1020.0 1009.1 0
04 24.08 В 2-2
{2}
40 км н/о +15.0 +10.6 75 +15 +15 1019.5 1008.6
05 24.08 В 2-2
{2}
35 км н/о +14.9 +10.7 76 +15 +15 1019.4 1008.5
06 24.08 В 2
{3}
45 км н/о +16.4 +11.1 71 +17 +17 1019.2 1008.4 +14.6 +22.0 0
07 24.08 В 2-2
{2}
29 км н/о +18.9 +12.2 65 +21 +21 комфорт 1019.3 1008.6
08 24.08 В 2-2
{3}
35 км н/о +22.4 +12.3 53 +25 +25 комфорт 1019.1 1008.5
09 24.08 В 1-2
{2}
60 км н/о +24.8 +13.0 48 +27 +27 жарко 1019.0 1008.5 0
10 24.08 ЮВ 1-2
{3}
60 км н/о +26.5 +11.8 40 +28 +28 жарко 1018.7 1008.3
11 24.08 В 2-3
{3}
60 км н/о +27.9 +9.7 32 +28 +28 жарко 1018.4 1008.0
12 24.08 Ю 2-3
{4}
19 км н/о +28.2 +10.4 33 +29 +29 жарко 1018.1 1007.7 0
13 24.08 СЗ 1-2
{3}
50 км н/о +28.6 +12.1 36 +30 +30 жарко 1017.7 1007.3
14 24.08 С 2-3
{3}
50 км н/о +27.8 +11.4 36 +29 +29 жарко 1017.5 1007.1
15 24.08 С 2-3
{3}
60 км н/о +27.7 +11.3 36 +29 +29 жарко 1017.3 1006.9 0
16 24.08 СВ 2-2
{3}
60 км н/о +28.4 +10.6 33 +29 +29 жарко 1016.9 1006.5
17 24.08 СВ 2-2
{2}
55 км н/о +28.1 +11.2 35 +29 +29 жарко 1016.5 1006.1
18 24.08 В 1
{4}
17 км н/о +27.3 +12.1 39 +29 +29 жарко 1016.4 1006.0 +16.5 +29.3 0
19 24.08 В 2-2
{2}
19 км н/о +24.3 +11.9 46 +26 +26 жарко 1016.6 1006.1
20 24.08 В 2 50 км н/о +22.5 +12.4 53 +25 +25 комфорт 1016.8 1006.2
21 24.08 В 2-2
{2}
45 км 10/0
[]
+21.8 +12.6 56 +24 +24 комфорт 1016.8 1006.2 0
22 24.08 В 1 50 км 9/9
[]
+21.6 +12.2 55 +24 +24 комфорт 1016.8 1006.2
23 24.08 В 2 55 км 8/8
[]
+20.7 +12.1 58 +24 +24 комфорт 1016.7 1006.1
00 25.08 В 2-2
{2}
55 км н/о +20.6 +11.5 56 +23 +23 комфорт 1016.7 1006.1 0
01 25.08 ЮВ 2-2
{2}
50 км н/о +21.0 +11.3 54 +24 +24 комфорт 1016.5 1005.9
02 25.08 В 2-2
{2}
50 км н/о +18.7 +11.7 64 +20 +20 1016.7 1006.0
03 25.08 В 2-2
{2}
45 км н/о +18.2 +12.0 67 +19 +19 1016.7 1006.0 0
04 25.08 ЮВ 2-2
{2}
45 км н/о +17.8 +12.0 69 +19 +19 1016.8 1006.1
05 25.08 ЮВ 1-2
{2}
45 км н/о +17.8 +11.8 68 +19 +19 1016.9 1006.2
06 25.08 В 1
{4}
50 км н/о +17.7 +11.9 69 +19 +19 1017.2 1006.5 +17.0 +27.3 0
07 25.08 ЮВ 1-2
{2}
45 км н/о +21.6 +11.9 54 +24 +24 комфорт 1017.4 1006.8
08 25.08 ЮВ 1-2
{2}
60 км н/о +24.2 +12.5 48 +26 +26 жарко 1017.6 1007.1
09 25.08 ЮВ 1-1
{2}
19 км н/о +27.3 +12.5 40 +29 +29 жарко 1017.7 1007.3 0
10 25.08 ЮЗ 1-1
{1}
45 км н/о +30.0 +11.5 32 +31 +31 жарко 1017.5 1007.2
11 25.08 СЗ 3-4
{4}
50 км н/о +25.2 +14.6 52 +28 +28 жарко 1017.9 1007.4
12 25.08 СЗ 3-4
{4}
17 км н/о +21.7 +17.9 79 +26 +26 душно 1018.4 1007.8 0
13 25.08 С 2-3
{4}
16 км н/о +21.4 +17.4 78 +25 +25 комфорт 1018.5 1007.9

 

Местоположение метеостанции Гавр аэропорт (Франция): широта 49.53 долгота 0.08 высота над уровнем моря 94 м.

В архиве по умолчанию представлена погода в Гавр аэропорту за последнюю неделю. Архивные данные за месяц целиком и за предыдущие месяцы, начиная с января 2011 года, Вы можете получить, выбрав интересующий диапазон дат из раскрывающегося списка и нажав кнопку "Ввод!".


*Определитесь, кто Вы:
робот инопланетянин человек

Внимание! Время в таблицах - всемирное. Для получения местного времени необходимо прибавить поправку, которая равна 1 ч.

Смотрите также архив погоды в соседних городах и на ближайших метеорологических станциях:

Погода в Гавре (Франция) (3 км)
Погода в Довиле (Франция) (19 км)
Погода в Кане (Франция) (55 км)
Погода в Порт-ан-Бессене (Франция) (65 км)
Погода в Руанском (Франция) (81 км)
Погода в Дьеппе (Франция) (86 км)
Погода в Барфлере (Франция) (99 км)
Погода в Эврё (Франция) (101 км)
Погода в Тусю-ле-Нобле (Франция) (112 км)
Погода в Мопертю-сюр-Мере (Франция) (113 км)

Пояснения к столбцам:

Ветер - указаны скорость ветра в м/с - средняя за 10 мин, порывы в срок и между сроками (в фигурных скобках) и направление, откуда дует ветер: С - северный, СВ - северо-восточный, В - восточный, ЮВ - юго-восточный, Ю - южный, ЮЗ - юго-западный, З - западный, СЗ - северо-западный.
Видимость - горизонтальная дальность видимости в метрах или километрах. При видимости от 1 до 10 км при отсутствии осадков обычно наблюдается дымка, при ухудшении видимости до 1 км и менее - туман. В сухую погоду видимость может ухудшаться дымом, пылью или мглою.
Явления - указаны атмосферные явления, наблюдавшиеся в срок или в последний час перед сроком; фигурными скобками обозначены явления, наблюдавшиеся между сроками (за 1-3 часа до срока); квадратными скобками обозначены град или гололедные отложения с указанием их диаметра в мм.
Облачность - указаны через наклонную черту общая и нижняя облачность в баллах и высота нижней границы облаков в метрах; квадратными скобками обозначены формы облаков: Ci - перистые, Cs - перисто-слоистые, Cc - перисто-кучевые, Ac - высококучевые, As - высокослоистые, Sc - слоисто-кучевые, Ns - слоисто-дождевые, Cu - кучевые, Cb - кучево-дождевые. Подробнее классификацию облаков см. в Атласе облаков (PDF).
T - Температура воздуха - температура, измеренная на высоте 2 м над землей.
Td - Температура точки росы - температура, при понижении до которой содержащийся в воздухе водяной пар достигнет насыщения.
f - Относительная влажность воздуха - влажноcть воздуха, измеренная на высоте 2 м над землей.
Te - Эффективная температура - температура, которую ощущает одетый по сезону человек в тени. Характеристика душности погоды. При расчете учитывается влияние влажности воздуха и скорости ветра на теплоощущения человека.
Tes - Эффективная температура на солнце - температура, которую ощущает человек, с поправкой на солнечный нагрев. Характеристика знойности погоды. Зависит от высоты солнца над горизонтом, облачности и скорости ветра. Ночью, в пасмурную погоду, а также при ветре 12 м/с и более поправка равна нулю.
P - Атмосферное давление - приведенное к уровню моря атмосферное давление.
Po - Атмосферное давление - измеренное на уровне метеостанции атмосферное давление.
Tmin - Минимальная температура - минимум температуры воздуха на высоте 2 м над землей.
Tmax - Максимальная температура - максимум температуры воздуха на высоте 2 м над землей.
R - Количество осадков - Количество выпавших осадков за период времени, мм. При наведении курсора мыши на число - период времени, за который выпало указанное количество осадков.
R24 - Количество осадков - Количество выпавших осадков за 24 часа, мм.
S - Снежный покров - Высота снежного покрова, см. При наведении курсора мыши на число - состояние снежного покрова и степень покрытия местности в баллах.